Regional Weather Roundup
Issued by NWS

Home | Current Version | Previous Version | Graphics & Text | Print | Product List | Glossary On
Versions: 1 2 3 4 5 6 7 8 9 10 11 12 13 14 15 16 17 18 19 20 21 22 23 24 25 26 27 28 29 30 31 32 33 34 35 36 37 38 39 40 41 42 43 44 45 46 47 48 49 50
000
ASUS43 KBIS 251502
RWRND

NORTH DAKOTA REGIONAL WEATHER ROUNDUP
NATIONAL WEATHER SERVICE BISMARCK ND
1000 AM CDT THU AUG 25 2016

NOTE: "FAIR" INDICATES FEW OR NO CLOUDS BELOW 12,000 FEET WITH NO
SIGNIFICANT WEATHER AND/OR OBSTRUCTIONS TO VISIBILITY.


NDZ001>003-009>011-017-251600-
NORTHWEST NORTH DAKOTA

CITY           SKY/WX    TMP DP  RH WIND       PRES   REMARKS
WILLISTON      SUNNY     62  47  57 W13       30.20R
MINOT          CLOUDY    60  52  74 W12       30.13R
MINOT AFB      PTSUNNY   59  52  76 NW14      30.12R
$$

NDZ018>021-031>035-040>046-251600-
SOUTHWEST NORTH DAKOTA

CITY           SKY/WX    TMP DP  RH WIND       PRES   REMARKS
BISMARCK       CLOUDY    56  51  84 NW13      30.16R
DICKINSON      CLOUDY    52  46  80 NW12      30.22R
GARRISON         N/A     60  49  66 N12       30.16R
HETTINGER ARPT CLOUDY    54  45  71 NW16G23   30.24R
$$

NDZ004>008-012>016-024-026-027-054-251600-
NORTHEAST NORTH DAKOTA

CITY           SKY/WX    TMP DP  RH WIND       PRES   REMARKS
GRAND FORKS    CLOUDY    60  54  80 NW15      29.98R
GRND FRKS AFB  CLOUDY    60  52  74 N13       29.99R
DEVILS LAKE    CLOUDY    58  52  80 N16       30.06R
$$

NDZ022-023-025-028>030-036>039-047>053-251600-
SOUTHEAST NORTH DAKOTA

CITY           SKY/WX    TMP DP  RH WIND       PRES   REMARKS
FARGO          CLOUDY    63  53  70 W18G28    30.00F
JAMESTOWN      CLOUDY    58  53  84 NW17      30.07R
$$





USA.gov is the U.S. government's official web portal to all federal, state and local government web resources and services.